Charter Quote
Worldwide +1-877-727-2538 Call
Select Language Lang
SAFETY RELIABILITY EXPERIENCE

Private Jet Charter Services - Changzhou (ZSCG)

Paramount Business Jets offers private jet charter flights and luxury airliner charters to and from Changzhou.

AIRPORT INFORMATION
ICAOZSCG
LOCATIONChangzhou, China
FACILITY TYPEAIRPORT

At Paramount Business Jets you can hire chartered private jets to and from Changzhou with as little as 4 hours of notice. All flights booked via Paramount Business Jets are operated by certified direct air carriers that meet and exceed the FAA part 135 and 121 protocol or a foreign equivalent safety authority. Furthermore, Paramount Business Jets subscribes to ARGUS for their third party safety checks of operators, aircraft, and crews prior each and every flight to and from Changzhou and worldwide.

  • Quote a trip using Changzhou or call us 24/7 - 365 days a year at +1-877-727-2538.
Questions? Call +1-877-727-2538

METAR Weather Data at Changzhou, ZSCG

STATIONZSCG
OBSERVEDFri Aug 2, 03:00 UTC
NOWMon Oct 21, 20:47 UTC
AGE1937:47 hr ago
WINDSSE at 9 mph
VISIBILITYgreater than 7 miles
CLOUDSclear skies
TEMP95°F (35°C)
DEWPT73°F (23°C)
HUMIDITY50%
HEAT INDEX105°F (41°C)
BAROMETER1007 hPa (29.74 in Hg)
METARZSCG 020300Z 16004MPS 140V200 CAVOK 35/23 Q1007 NOSIG

Call us on +1-877-727-2538 (24 Hours) to Hire a Private Jet or Get a Quick Quote.

Find Airports Near any Location

Processing
...